RH
5 6 6 7 7 7 7 7 7 7 7 7 7 8 8 8 8 9 8 8 8 8 7 7 6 6 6 6 6 9 11 13 12 13 12 6 4 4 8 14 16 19 22 21 16 16 33 52 61 64 65 68 66 59 55 56 53 52 58 60 59 56 50 42 36 32 31 28 20 21 28 35 38 39 43 46 48 50 51 52 52 53 55 64 72 73 78 83
5 5 5 6 6 6 7 7 7 7 7 7 7 7 7 8 8 8 8 8 9 8 8 8 8 7 7 7 6 6 8 10 11 11 11 8 6 5 8 13 16 18 19 19 14 14 27 42 56 63 64 65 62 54 47 49 50 52 64 65 56 52 43 32 30 28 27 28 22 22 32 35 37 39 40 44 47 47 49 51 53 55 61 68 71 73 78 84
7 6 6 5 5 5 5 6 6 7 7 7 7 7 7 7 7 7 8 8 8 8 9 8 8 8 7 7 7 6 7 8 8 11 13 11 7 4 7 14 16 17 17 15 11 13 15 23 48 62 61 61 58 52 45 45 51 49 55 62 54 42 35 29 28 26 24 27 24 23 31 35 36 37 37 39 42 44 48 51 53 57 62 69 72 74 80 84
10 9 8 7 6 6 6 5 5 6 6 6 7 7 7 7 7 7 7 7 8 8 8 8 8 8 8 8 7 6 7 8 9 14 14 9 6 3 6 14 18 16 16 13 11 15 14 25 51 59 55 57 55 49 42 42 50 48 48 54 46 35 35 32 27 25 22 24 24 22 28 34 34 34 35 36 41 45 48 51 52 57 62 67 71 74 79 82
12 11 10 9 8 8 7 6 5 5 5 5 6 6 7 7 7 7 7 7 7 8 7 8 8 8 8 8 8 7 7 9 13 17 13 10 9 5 6 13 18 17 16 16 14 19 26 33 48 54 52 52 51 47 40 38 43 44 45 46 38 34 35 31 25 24 20 21 25 23 25 31 31 32 34 36 41 44 46 50 51 54 59 64 68 72 77 81
14 13 12 11 10 10 8 8 7 6 5 5 5 5 6 6 7 7 7 7 7 7 7 7 7 8 8 8 8 7 8 10 12 15 14 13 13 11 10 12 14 14 14 18 14 18 34 39 40 47 48 47 48 46 40 35 38 42 41 39 37 34 32 27 24 22 19 21 26 24 22 23 24 27 33 35 36 39 45 48 49 51 56 60 65 70 74 77
16 15 14 13 12 11 10 9 8 8 7 6 5 5 5 5 6 7 7 7 7 7 7 7 7 7 7 8 8 7 10 10 8 12 14 14 14 13 14 12 11 11 12 16 12 10 25 34 34 39 43 46 45 42 38 32 34 40 38 35 35 33 31 28 23 20 20 22 24 22 17 16 19 26 31 31 32 38 46 47 48 51 54 59 64 68 70 71
17 16 15 15 13 12 11 11 10 9 8 7 7 6 6 5 5 6 6 7 7 7 7 7 7 7 7 7 7 9 12 10 7 10 12 12 12 13 14 13 12 12 12 12 11 8 13 23 27 30 36 43 42 38 36 31 34 39 35 32 32 32 31 29 25 22 20 21 21 16 14 15 16 22 26 27 33 40 46 48 50 52 54 58 63 66 67 68
18 17 16 16 15 14 12 12 11 11 10 9 8 7 7 6 6 5 5 6 6 7 7 7 7 6 7 6 8 12 11 8 8 9 10 9 10 12 14 15 13 12 12 9 9 8 10 17 23 26 28 32 34 32 29 27 31 37 34 30 29 29 29 28 26 23 21 21 20 16 16 16 13 19 27 29 36 43 47 49 51 52 54 57 62 64 66 67
21 19 18 17 16 15 14 13 12 12 11 10 9 9 8 8 7 6 5 5 5 6 6 7 7 6 7 7 14 18 10 6 10 11 12 10 10 13 14 15 14 12 11 10 10 9 9 12 19 25 25 26 27 25 23 21 22 28 32 30 28 28 25 26 26 23 21 21 20 19 20 17 12 23 36 37 40 45 48 50 51 52 53 56 60 63 64 65
23 21 20 19 17 16 15 14 14 13 12 11 10 9 9 9 8 7 6 5 5 5 6 6 6 6 7 9 17 19 8 8 14 14 13 13 13 15 15 15 14 13 12 11 10 9 8 8 14 24 26 24 23 20 19 16 15 17 20 21 24 26 24 25 25 23 22 21 21 20 21 18 16 28 40 43 44 45 48 50 50 51 53 54 57 61 62 63
24 22 21 20 19 18 16 15 15 14 13 12 11 9 9 9 9 9 7 6 5 5 5 6 7 6 6 9 12 11 8 10 13 11 11 12 15 16 16 16 14 13 14 13 10 8 8 6 11 23 26 22 21 20 17 14 12 10 11 13 18 24 25 25 24 23 21 21 20 19 23 21 21 33 41 43 45 45 48 50 50 50 52 53 55 59 61 61
23 22 21 20 20 19 17 16 15 15 13 12 11 10 10 9 9 9 8 7 5 5 5 5 6 5 8 12 10 8 8 9 9 9 9 8 13 17 17 18 17 15 15 15 11 9 9 6 10 22 25 22 20 18 14 11 9 9 11 13 19 29 30 25 23 21 19 20 18 19 31 30 26 36 41 42 45 46 48 49 49 50 51 52 53 57 59 59
21 20 19 19 19 19 18 16 15 15 13 12 11 10 9 9 9 8 8 7 5 5 5 5 7 6 10 12 8 9 9 9 10 9 9 9 11 14 16 21 21 18 16 17 16 14 13 9 11 18 21 22 19 15 11 9 9 10 11 12 19 30 30 22 20 21 18 20 18 21 36 35 28 37 41 42 45 46 48 48 49 50 51 52 53 56 58 58
20 19 18 17 17 18 19 17 16 15 13 12 11 10 10 8 8 8 8 7 5 5 4 5 6 8 18 16 5 9 12 13 12 8 8 9 10 11 15 22 24 21 17 16 18 17 16 14 15 17 18 18 15 12 11 10 11 10 12 15 17 21 22 16 17 20 19 20 19 23 37 34 28 37 39 41 44 44 47 47 48 50 50 51 52 54 56 57
20 18 17 16 15 16 18 18 16 15 14 12 11 10 8 7 8 8 9 8 7 6 5 11 16 22 33 25 10 12 15 14 12 9 9 8 9 11 13 17 19 20 17 15 16 16 15 15 15 16 16 15 12 11 12 13 14 13 14 17 16 16 17 14 16 19 17 20 20 23 36 34 29 34 37 40 43 43 46 46 47 48 49 50 51 53 55 56
20 18 17 15 14 14 16 17 17 15 13 12 10 7 9 15 16 13 16 19 20 17 10 23 42 45 36 20 12 13 11 11 12 12 13 9 8 10 11 13 14 17 16 14 15 14 14 13 13 16 14 13 12 11 14 17 18 17 16 17 16 15 16 15 16 17 17 20 22 23 31 32 28 31 35 39 41 42 44 45 45 47 47 48 49 51 52 53
21 19 17 16 14 14 14 16 18 15 13 11 9 10 18 23 19 20 29 28 31 33 23 31 47 40 24 14 14 12 8 12 14 13 15 11 9 9 11 13 14 15 14 14 14 12 13 12 13 17 17 15 13 12 16 17 16 15 16 18 16 14 15 15 16 16 18 20 22 26 29 30 27 26 31 37 40 42 42 43 44 45 45 46 48 50 50 51
23 20 18 16 15 14 13 16 17 14 11 10 11 18 24 22 20 34 42 28 29 41 38 40 38 21 13 13 12 11 11 14 16 15 15 13 9 8 10 12 13 14 14 15 14 12 13 14 15 19 20 18 14 13 14 13 13 13 14 15 16 15 14 13 12 14 18 20 22 27 28 29 26 21 27 35 37 39 40 40 42 43 43 44 46 47 48 48
23 20 18 17 16 15 13 15 17 14 11 11 15 18 20 23 27 36 37 25 24 29 27 30 32 22 17 14 9 10 13 14 17 19 17 14 11 9 10 12 12 13 15 16 15 12 12 17 19 19 20 19 15 12 11 11 12 12 13 14 14 15 14 12 11 12 17 20 23 25 27 28 25 19 24 32 34 36 38 38 40 42 42 42 45 46 46 45
24 21 19 18 18 17 14 14 16 14 12 14 17 19 22 29 33 29 26 23 20 20 17 17 23 24 20 15 11 13 18 17 17 19 18 15 12 11 12 12 13 15 15 15 14 12 13 18 19 17 17 17 15 13 11 11 11 11 13 14 14 14 14 11 10 12 15 19 22 25 27 28 26 20 21 28 32 34 35 36 38 40 41 41 43 44 44 43
26 24 21 19 20 20 17 15 15 15 17 17 18 24 28 29 31 28 25 23 19 17 18 14 16 18 15 12 9 13 23 24 18 17 17 16 13 13 13 12 15 16 14 14 15 16 18 18 16 15 15 14 15 14 12 11 11 12 12 13 15 14 13 13 11 11 13 17 22 25 27 28 26 22 21 26 29 31 32 32 34 38 40 40 41 43 43 43
29 26 25 22 20 22 20 17 16 17 20 18 18 26 29 26 26 25 24 24 20 16 14 13 15 14 12 11 8 14 25 26 21 17 14 15 13 12 12 13 15 16 14 14 16 20 21 18 14 14 14 14 14 13 13 12 11 12 12 13 15 13 14 16 13 11 12 16 19 23 27 27 26 25 23 23 24 26 30 30 31 36 38 38 39 40 41 43
31 29 29 26 22 22 21 19 22 23 19 16 20 25 26 26 23 22 25 26 23 18 14 13 13 12 11 10 9 15 20 19 19 16 13 15 13 11 12 12 14 16 15 15 15 18 19 15 13 13 13 13 14 13 13 14 13 12 12 12 13 12 13 15 13 12 13 14 17 23 30 32 30 29 27 24 22 23 26 28 28 32 36 36 37 39 40 41
31 30 30 29 26 23 21 23 28 24 15 16 23 23 23 24 20 20 28 31 27 22 16 14 14 13 11 10 9 10 13 14 13 12 12 15 12 11 12 11 13 15 15 15 15 17 16 13 12 13 13 12 13 13 12 13 14 13 12 11 11 11 12 13 12 14 18 19 19 22 32 40 38 32 28 27 27 24 24 26 27 29 33 35 36 38 40 40
31 30 29 30 28 26 23 22 23 19 14 19 22 19 20 22 18 18 26 34 32 23 16 15 14 12 10 11 10 8 11 12 8 7 11 14 13 11 11 10 11 13 14 14 14 15 14 12 12 13 13 12 12 13 11 11 13 14 12 10 10 10 11 14 12 16 26 26 19 19 29 42 42 34 30 28 29 28 26 26 26 27 31 33 34 37 39 40
29 28 27 28 28 28 27 23 21 17 16 21 20 16 18 19 16 16 25 39 37 20 14 14 11 10 9 10 9 8 11 10 6 6 8 12 13 10 12 12 11 11 11 12 14 14 13 13 13 13 12 12 12 12 11 10 12 12 11 10 11 10 11 13 12 16 24 22 17 18 24 36 40 33 29 29 29 31 30 28 26 26 29 31 32 34 37 39
25 24 24 24 25 27 29 27 22 17 18 23 22 18 16 15 15 20 32 42 32 15 10 12 10 9 8 8 9 7 8 8 8 7 6 10 13 10 12 13 12 12 9 11 16 13 11 14 14 13 13 13 11 11 10 9 11 10 9 10 11 11 11 12 13 15 17 16 18 20 20 32 44 37 30 31 31 31 32 31 28 27 27 29 30 31 34 37
23 21 21 21 21 24 27 28 24 19 19 23 23 20 16 15 17 27 38 36 22 12 10 10 10 9 8 8 8 6 6 7 7 7 5 9 12 11 13 12 11 11 9 10 14 12 10 11 12 12 13 13 11 9 9 9 9 8 7 9 9 10 11 12 13 14 16 19 22 22 20 29 44 44 35 35 35 31 30 30 30 29 26 27 29 29 31 35
21 19 20 20 19 20 23 24 24 21 18 19 21 18 16 19 24 34 42 33 19 13 10 10 10 9 8 8 8 7 7 6 6 7 6 7 10 10 11 11 10 10 10 10 11 10 10 9 9 11 12 11 10 8 8 8 8 7 7 8 8 10 11 13 17 17 18 22 21 21 21 24 34 42 38 35 33 29 27 28 29 29 28 27 27 28 29 32
19 16 17 20 19 21 23 21 23 23 20 20 20 17 19 24 31 43 41 25 16 14 11 12 11 8 8 9 9 8 7 7 6 8 9 8 10 10 10 12 12 11 12 12 11 10 10 9 10 9 9 10 10 8 7 7 6 7 6 8 10 11 12 14 17 19 21 25 24 20 21 21 28 37 36 31 28 26 26 27 27 29 29 28 27 27 28 29
19 15 12 16 19 20 19 17 19 23 23 25 23 22 26 27 30 39 32 19 18 18 13 13 12 9 9 8 8 8 7 7 6 8 10 9 11 11 10 12 14 15 16 13 12 12 11 11 10 9 8 9 9 10 9 7 6 7 7 10 12 12 15 17 18 21 24 30 30 21 20 25 28 31 32 29 27 25 24 24 24 25 27 29 28 26 27 28
19 14 10 13 14 15 17 18 19 20 27 34 32 30 36 37 33 28 22 19 19 15 12 13 13 11 11 10 9 7 7 7 6 7 9 9 11 11 10 10 11 13 17 15 12 13 13 11 9 9 9 8 9 11 11 9 8 7 8 12 14 14 18 21 20 21 25 31 29 18 20 30 28 25 27 27 26 24 22 23 22 22 24 27 28 27 27 27
18 14 11 8 13 24 34 36 29 22 29 40 42 40 40 42 39 26 19 19 15 12 13 14 14 12 11 12 10 7 7 7 6 6 9 10 10 11 10 10 9 9 14 16 13 13 15 16 14 10 9 9 9 9 9 9 8 6 7 9 12 15 16 20 23 23 27 32 27 18 21 27 25 25 26 23 24 23 22 21 21 21 22 23 27 28 28 28
22 14 11 7 20 39 44 46 42 34 37 45 52 54 44 35 33 27 20 17 15 17 17 14 14 13 11 11 11 9 7 7 7 6 9 10 10 11 10 9 9 8 12 15 14 12 13 16 14 9 9 9 8 8 7 8 8 6 6 6 11 15 15 21 30 27 23 26 25 22 26 29 25 24 24 22 23 24 23 22 21 22 22 22 27 28 28 29
29 15 9 9 28 45 43 44 48 47 47 53 63 63 44 29 27 25 22 21 21 22 20 17 16 15 15 14 12 11 8 8 8 7 9 10 9 10 9 8 9 8 9 12 14 14 13 14 11 8 10 8 8 10 6 7 11 10 7 6 10 12 9 17 26 23 18 20 23 21 25 30 25 21 22 23 25 26 25 25 23 23 23 23 26 28 27 29
43 24 10 12 33 46 43 42 49 55 53 60 72 63 40 30 28 27 28 27 26 21 20 24 21 17 19 17 13 13 11 10 10 9 10 10 10 9 8 8 7 7 9 9 12 14 14 16 12 9 11 9 7 9 6 7 10 10 8 6 8 8 7 16 22 18 18 23 24 18 16 20 23 27 31 26 25 27 26 26 25 24 25 24 25 27 26 28
60 39 17 24 43 44 39 39 49 62 60 65 79 68 48 43 37 32 30 27 25 22 22 26 21 17 18 17 15 14 12 14 13 11 12 12 11 9 8 8 7 6 7 8 12 13 13 16 15 10 10 9 8 9 9 9 6 7 9 6 9 11 9 17 22 18 18 20 21 20 20 20 22 30 31 24 24 27 24 27 26 24 26 25 24 26 25 26
67 55 29 26 37 32 30 35 45 62 68 72 81 70 53 46 38 33 31 29 29 27 26 25 20 20 21 20 20 18 16 16 14 14 15 14 12 10 7 7 8 7 6 7 11 12 11 14 16 12 9 9 10 10 12 11 8 8 8 5 10 12 9 12 16 18 21 22 22 21 21 25 28 28 23 19 24 26 23 26 27 24 25 24 23 24 24 25
73 78 45 17 25 29 26 32 43 63 75 74 71 61 50 44 39 36 34 33 32 30 30 29 27 30 29 25 25 24 21 18 15 15 14 12 12 11 9 7 8 8 7 6 8 10 12 14 16 15 11 10 12 12 11 11 10 10 9 8 8 7 9 11 11 16 24 32 36 26 19 30 37 29 20 17 19 22 22 24 24 23 22 22 22 23 23 24
80 94 53 12 27 40 35 40 47 57 67 64 60 55 48 44 41 37 34 33 32 30 30 30 30 31 29 28 27 24 23 21 19 18 14 13 13 11 13 15 12 9 7 8 8 9 11 13 16 15 12 12 12 10 9 9 9 9 10 10 8 8 12 10 10 15 17 26 36 29 20 28 31 22 16 17 17 19 21 20 21 22 20 21 22 21 23 23
87 91 49 18 40 53 52 57 53 49 54 54 51 48 43 41 40 36 32 29 28 27 24 23 24 24 25 29 30 29 30 27 23 20 16 13 10 12 20 27 25 18 12 9 7 9 11 13 15 15 13 12 11 9 9 7 8 8 8 9 7 10 12 10 21 29 18 15 27 27 20 21 26 24 19 18 19 19 19 19 20 20 18 20 21 20 22 23
96 86 46 30 49 57 63 72 64 53 50 45 40 39 37 37 36 32 28 25 26 26 23 23 26 26 29 33 35 36 37 34 30 26 24 20 17 21 29 33 32 26 19 16 12 12 14 14 16 17 14 11 10 9 9 8 8 8 8 8 7 8 8 11 29 36 21 13 19 22 15 15 29 31 18 16 21 20 19 17 18 19 18 19 21 20 22 23
100 87 56 44 51 57 68 76 69 60 52 43 40 40 37 32 30 31 32 32 33 32 30 31 31 30 31 33 36 38 40 44 43 37 37 37 33 31 33 34 33 28 27 32 30 23 18 16 17 20 18 17 15 12 11 10 9 8 8 7 6 8 7 8 20 24 20 19 19 16 13 21 39 35 13 10 17 20 23 19 14 18 19 20 21 21 22 23
94 86 69 57 56 59 64 62 59 60 57 52 52 48 41 36 32 33 36 35 33 32 33 34 33 31 30 33 38 38 38 45 49 43 42 44 39 34 34 36 34 31 35 42 41 34 24 17 17 20 22 22 20 18 20 19 11 8 10 7 6 8 6 8 12 12 19 28 21 16 21 30 38 28 10 7 9 14 23 21 16 17 18 21 24 22 22 23
94 89 76 66 63 61 58 53 54 61 60 60 62 55 47 44 38 33 34 35 33 32 32 33 32 31 31 35 43 43 39 41 46 46 46 47 43 37 36 37 34 35 42 43 37 34 29 21 18 18 19 19 17 18 26 24 12 8 10 8 7 8 6 9 13 12 23 31 20 23 34 27 20 18 14 11 8 7 14 19 22 19 15 19 24 23 23 23
97 90 76 74 76 68 62 60 61 63 62 63 65 58 50 49 44 36 35 34 33 32 32 32 33 34 37 42 47 47 46 45 44 45 47 48 45 39 36 36 35 37 43 40 33 34 37 33 25 18 16 15 14 14 16 16 11 9 10 8 7 8 6 9 11 12 25 25 13 25 40 25 14 20 20 16 12 10 15 23 25 19 14 18 21 21 23 24
95 86 73 78 85 79 75 76 70 67 65 61 58 53 52 51 47 43 40 36 33 32 34 38 36 34 40 47 52 54 54 52 49 47 49 49 46 44 41 37 35 37 38 36 33 33 40 43 32 23 19 13 11 12 10 11 13 11 10 9 8 9 7 8 11 12 19 16 9 25 40 30 19 19 17 17 17 15 18 20 18 17 16 15 16 19 21 24
93 89 81 83 88 85 84 82 73 67 64 61 59 56 53 53 50 46 43 43 44 38 35 41 39 33 38 46 55 63 61 57 56 52 50 50 47 47 49 44 39 36 35 36 35 31 40 49 41 32 28 17 11 12 9 9 12 11 11 10 8 8 8 7 9 10 13 14 13 23 34 30 24 22 18 16 13 12 15 16 15 19 22 17 16 17 16 19
94 93 90 92 94 88 85 80 72 71 68 65 66 59 52 54 53 47 43 47 53 47 38 41 42 38 43 50 57 63 58 54 57 54 48 51 51 49 50 48 43 39 37 38 37 32 40 49 41 35 37 25 11 12 12 10 11 12 13 12 9 9 9 8 8 9 11 13 14 19 25 25 25 30 26 16 12 13 18 21 22 23 27 26 22 19 16 17
96 96 94 99 97 87 85 80 72 78 80 72 69 64 58 59 56 50 46 43 47 50 44 45 48 44 46 52 56 57 51 49 53 50 44 48 49 46 46 44 41 42 43 42 39 36 40 45 39 38 46 37 17 11 12 10 11 12 13 14 11 10 9 8 9 11 12 15 17 18 21 21 22 27 24 14 14 18 18 22 27 26 28 33 28 21 19 17
97 98 95 99 98 86 83 79 73 80 82 70 67 67 63 61 54 51 56 49 40 44 45 46 50 50 50 54 53 49 45 44 47 46 45 47 44 41 42 40 37 39 41 40 41 39 38 42 41 42 50 46 27 16 12 11 15 15 12 12 12 11 11 10 9 10 11 15 18 15 18 25 25 25 22 13 14 22 19 17 21 22 26 33 30 23 20 17
Wind_Speed
18 17 16 16 16 17 17 17 17 17 17 17 17 17 17 17 17 17 17 17 17 18 17 17 17 17 17 17 18 18 20 21 21 23 27 20 9 10 15 18 14 14 18 17 14 18 25 27 27 24 20 20 18 17 19 18 16 8 2 3 3 3 3 3 3 3 2 1 4 8 22 22 12 18 24 23 24 29 23 17 21 15 19 30 29 34 34 32
18 18 18 18 18 18 18 18 18 18 18 18 18 18 18 17 17 17 18 18 18 18 17 17 17 17 17 17 17 18 19 20 23 24 20 13 12 14 20 22 15 14 20 20 17 22 28 30 31 26 22 20 17 17 16 15 16 9 2 1 4 3 4 5 4 4 4 2 4 6 26 25 18 24 25 19 17 21 18 16 23 23 24 29 33 36 33 36
19 18 19 19 19 19 19 19 19 19 19 18 18 18 18 18 18 18 18 18 18 18 18 18 16 16 17 17 16 17 19 20 23 17 7 5 11 18 25 25 17 14 21 22 17 20 25 27 30 27 22 18 17 18 14 12 13 11 6 2 6 6 6 10 8 9 9 5 3 3 25 26 25 30 23 17 17 17 15 19 24 26 31 34 36 37 36 38
19 19 19 19 19 19 19 20 20 20 19 19 19 18 19 19 18 19 18 18 18 18 18 18 17 15 15 17 16 15 17 19 16 7 4 5 1 13 25 26 19 15 19 20 14 14 19 23 26 24 19 15 18 18 13 14 11 8 9 6 8 6 5 13 15 13 10 6 2 2 18 21 26 30 24 22 16 10 16 28 33 34 39 39 39 39 39 38
20 20 20 20 20 20 20 20 20 20 20 20 20 19 19 19 19 19 19 19 18 17 18 18 17 15 15 16 15 14 12 9 4 1 5 7 7 6 18 23 20 18 18 18 16 14 18 22 22 20 17 13 14 13 15 20 14 6 10 15 15 7 4 12 17 15 11 7 3 2 12 20 25 25 27 28 15 12 25 36 40 43 44 43 43 41 39 39
20 20 20 21 21 21 21 21 21 20 21 20 20 20 19 19 19 19 19 19 18 18 17 18 17 15 14 14 15 14 8 4 5 5 5 6 5 5 9 15 18 18 16 17 18 19 21 23 21 19 16 12 11 12 16 22 18 8 10 17 21 18 9 10 16 17 15 10 5 5 12 23 22 17 30 32 21 26 37 40 41 44 45 45 45 43 41 40
20 20 21 21 20 21 21 21 21 21 21 21 21 21 20 20 19 19 19 19 19 18 17 18 17 15 15 14 15 13 10 15 12 8 10 6 5 5 7 11 14 15 17 19 21 22 25 25 22 20 15 10 11 14 18 19 20 14 11 14 21 23 19 16 18 18 17 13 9 11 15 20 18 15 27 26 22 33 38 39 42 43 44 44 44 44 42 41
20 21 21 21 21 21 20 21 21 21 22 21 21 21 21 20 20 20 19 19 19 18 17 18 16 16 15 13 12 12 16 19 8 7 14 13 11 9 9 12 13 15 19 21 22 22 26 27 25 22 12 11 14 14 19 17 15 16 13 15 17 20 24 25 23 20 19 14 10 15 15 15 22 23 21 18 24 37 40 40 42 43 43 42 43 44 42 41
21 22 22 22 22 21 21 21 21 21 22 21 21 21 21 21 20 20 20 20 19 17 18 18 17 16 15 13 10 11 15 10 3 6 13 16 17 15 13 14 15 19 20 21 22 22 25 27 29 26 13 16 19 15 18 12 8 14 18 18 15 16 24 24 23 23 20 15 12 15 10 9 22 21 11 22 35 39 41 41 42 44 42 40 41 44 43 42
23 22 23 23 23 22 22 21 21 22 22 22 22 21 21 20 20 20 20 21 20 18 18 17 17 15 15 14 6 5 12 7 3 4 6 11 17 17 18 17 16 20 21 22 24 25 27 28 31 30 18 16 17 16 18 12 7 15 22 22 19 19 24 22 22 26 21 18 16 12 6 8 20 14 5 24 41 41 41 40 42 43 41 39 39 42 44 42
24 23 23 23 23 23 23 23 23 22 23 23 22 21 20 20 19 19 20 21 20 18 17 18 17 15 16 14 9 10 15 7 2 1 1 5 14 18 20 20 17 18 20 22 24 26 26 27 29 23 14 12 15 17 18 17 14 13 16 16 18 21 22 21 20 25 19 14 20 14 7 10 15 12 11 29 42 44 43 40 41 41 39 39 37 40 42 40
25 24 24 24 24 23 23 24 23 23 24 23 23 22 20 19 18 18 20 21 20 18 18 18 16 16 16 17 22 19 12 8 4 5 7 7 12 16 17 19 15 11 14 18 21 23 23 26 26 19 13 11 10 10 12 17 16 14 12 7 11 13 15 20 18 24 19 12 23 16 6 8 6 12 25 38 43 45 44 41 40 39 38 39 36 38 40 39
25 25 25 25 24 24 23 23 23 24 24 24 24 22 20 19 18 18 19 19 19 17 18 17 17 17 14 19 32 27 18 19 18 18 16 12 13 16 18 19 14 7 7 12 15 17 19 23 23 23 25 16 10 12 14 17 14 10 8 3 5 5 8 19 20 22 16 14 27 17 5 7 4 18 34 40 42 42 40 39 39 37 38 38 36 37 39 39
26 26 26 26 25 24 24 23 24 23 23 24 23 21 20 18 17 18 19 19 18 17 17 17 16 15 14 24 36 30 23 23 23 24 21 18 18 19 22 22 19 14 8 9 10 10 12 16 19 22 27 22 18 20 16 12 9 5 4 2 3 4 6 16 18 16 9 17 32 18 4 7 6 21 37 40 43 42 36 37 38 37 38 39 37 38 39 39
28 28 27 27 26 25 24 24 24 24 24 24 22 20 19 17 17 18 18 18 17 17 17 16 15 12 14 28 35 25 18 18 21 22 20 21 23 24 26 25 24 21 13 11 11 10 10 13 19 19 20 23 21 15 7 4 3 1 2 4 3 4 6 11 16 16 8 15 28 15 3 6 7 21 36 40 42 41 37 36 37 37 38 39 38 39 40 39
29 29 28 28 27 26 25 24 24 24 24 24 22 19 17 17 16 15 16 16 16 16 15 12 11 9 9 19 22 15 13 15 17 16 18 23 25 26 26 24 26 25 18 15 15 16 15 14 17 18 18 17 11 6 3 4 4 1 3 4 4 4 5 5 10 19 14 12 18 12 5 5 7 22 35 39 40 39 36 34 36 37 38 40 38 39 40 38
29 30 30 29 27 26 25 24 23 24 24 23 21 18 15 14 11 10 11 10 10 11 10 7 4 5 12 17 17 14 13 11 11 11 14 22 26 26 22 20 24 28 23 17 17 19 19 14 11 12 12 8 4 4 3 4 5 3 2 4 5 5 6 4 5 13 16 14 13 9 7 6 10 23 33 37 40 36 33 33 35 36 37 39 39 40 40 39
28 28 29 29 28 27 25 23 23 23 23 21 20 17 12 9 10 9 6 6 6 3 5 8 6 2 12 16 15 16 11 7 10 11 10 17 25 27 24 19 20 28 24 15 16 18 17 11 6 4 6 5 5 6 5 7 6 5 5 4 5 6 6 5 4 6 15 18 14 9 8 10 11 21 29 36 39 34 32 35 36 37 37 38 39 40 41 41
27 27 28 28 28 27 25 23 21 22 22 17 15 12 9 12 13 6 3 11 9 2 3 9 12 4 8 10 11 12 9 8 10 13 13 14 21 27 26 20 19 25 20 9 10 16 12 5 5 6 5 6 7 7 8 7 7 9 7 4 6 6 5 7 6 6 15 16 12 12 11 11 13 19 24 32 39 34 33 34 34 36 37 37 38 40 42 43
27 27 27 26 28 27 25 23 21 21 19 15 16 11 11 16 11 3 11 23 23 19 19 19 21 22 23 22 21 16 15 16 12 13 15 15 20 23 26 23 19 20 14 5 7 13 12 5 6 8 5 6 7 8 9 7 9 10 7 6 8 7 7 8 7 6 14 13 11 14 14 13 15 18 20 31 35 29 29 29 30 34 35 37 38 40 43 45
28 27 26 26 26 26 26 23 20 19 15 13 18 15 13 17 9 9 23 28 25 22 26 29 29 34 38 35 32 24 19 16 15 14 13 17 23 19 21 22 12 9 10 9 9 10 12 8 9 9 6 7 7 8 9 9 11 10 8 8 7 7 9 8 7 5 9 10 9 12 13 12 15 16 19 28 26 21 28 29 28 34 35 37 40 41 45 46
29 28 28 28 26 26 25 23 21 17 12 10 14 14 14 17 11 15 22 21 24 23 26 31 32 38 43 41 39 31 19 15 18 18 12 19 28 20 17 18 8 5 8 10 8 6 8 9 10 9 7 7 7 7 9 11 12 10 8 7 7 8 6 7 9 8 8 7 7 13 14 12 15 17 18 23 23 24 35 37 34 38 36 36 40 42 44 43
31 30 30 29 29 27 23 23 21 13 9 10 12 11 13 15 12 18 19 15 24 27 28 33 36 40 43 42 38 29 20 17 20 21 16 19 29 27 18 14 8 7 8 9 9 7 6 7 9 9 8 9 10 9 9 9 10 9 9 6 8 10 4 4 8 7 8 7 8 13 11 7 11 13 14 22 28 29 36 41 40 43 42 41 44 45 45 43
32 31 31 31 31 29 25 23 15 7 11 12 9 9 12 14 12 20 19 10 14 18 23 28 31 39 42 35 26 25 28 24 20 23 21 19 26 27 18 14 11 7 8 11 13 11 7 5 11 12 11 13 12 12 10 7 7 10 12 10 10 11 6 7 8 5 5 5 6 9 4 2 7 10 10 15 22 24 31 36 36 41 45 46 47 46 47 48
33 32 32 31 31 31 28 19 8 9 15 9 6 9 11 13 11 17 17 7 7 10 13 15 20 29 33 24 18 24 27 24 26 29 25 22 25 21 13 15 13 7 10 12 11 11 9 8 14 14 12 14 13 12 12 9 6 8 13 15 15 13 8 9 9 3 1 4 4 9 4 3 6 9 11 10 11 15 22 26 28 35 40 41 42 43 46 49
33 32 32 32 30 32 29 17 12 18 17 7 7 10 11 11 10 13 10 3 5 6 3 4 11 12 15 20 23 20 12 17 33 36 28 24 26 22 12 10 9 8 11 9 5 6 8 10 12 13 14 16 14 12 14 11 7 7 10 14 18 17 11 11 11 3 2 5 5 10 8 4 5 9 11 11 12 14 16 18 23 32 36 37 40 43 45 47
32 32 32 31 30 31 29 23 21 22 16 11 12 11 11 9 9 10 5 2 4 4 4 4 7 4 7 18 28 21 3 9 22 33 37 29 26 25 14 7 6 7 8 6 5 4 8 13 13 13 14 13 12 11 13 13 9 7 7 9 15 18 16 15 12 7 4 4 5 7 6 4 5 10 12 12 14 14 13 15 19 27 36 40 42 44 47 49
30 30 31 30 28 27 28 27 25 20 15 15 16 12 9 8 7 5 2 1 3 2 3 4 5 3 6 19 34 23 3 8 10 24 45 36 25 22 13 10 9 7 9 7 7 5 8 13 15 15 13 9 10 11 12 14 10 7 6 8 12 14 17 16 11 8 5 4 6 6 4 2 4 8 11 11 13 14 15 17 17 23 34 40 43 46 48 51
28 28 29 30 27 23 25 26 22 18 15 17 16 11 8 7 5 3 3 2 3 2 1 5 4 5 12 20 29 21 6 7 3 16 40 35 28 21 11 13 11 6 10 10 8 6 6 13 17 15 12 9 9 11 13 13 10 8 8 8 9 10 13 13 10 8 5 5 8 9 7 5 5 5 8 8 10 13 14 15 15 22 33 39 41 46 48 51
27 26 26 29 28 25 26 23 15 15 17 19 16 10 9 6 2 3 2 3 3 3 1 4 4 11 18 12 13 16 9 6 4 10 28 28 29 23 12 17 14 4 7 10 11 10 6 11 15 12 12 11 10 11 13 15 13 9 7 7 8 8 7 6 5 5 5 5 9 11 11 10 6 5 8 9 12 16 15 13 13 18 29 38 42 46 48 50
27 25 24 26 28 27 29 22 13 15 19 19 16 11 8 3 2 2 5 3 3 5 1 0 1 11 17 11 8 11 8 7 2 9 15 15 19 16 7 11 11 4 4 7 10 11 9 11 8 8 14 15 11 11 13 16 17 11 6 6 6 6 5 5 3 3 6 8 8 11 13 14 10 6 7 12 16 20 18 15 15 16 23 35 42 45 48 50
27 25 22 24 25 26 29 24 17 18 19 15 12 8 2 0 1 3 4 4 3 3 1 3 4 4 6 7 5 10 9 6 5 6 9 9 10 11 10 8 8 7 7 8 7 7 8 10 8 9 14 15 11 8 9 11 13 12 7 6 6 5 4 6 6 4 6 7 6 9 12 12 10 7 10 15 17 18 17 18 22 22 25 33 41 45 48 50
28 26 22 23 24 24 24 23 19 17 13 7 6 2 3 2 4 5 4 4 2 1 6 7 11 9 5 6 4 7 9 7 8 6 8 10 9 10 13 10 9 9 6 6 7 5 4 6 9 11 11 12 12 8 7 7 9 11 9 7 7 6 6 8 7 4 4 6 5 8 9 6 6 6 11 17 19 20 22 26 32 33 33 35 40 45 47 48
29 26 24 23 20 18 18 16 13 11 6 3 2 2 2 5 4 4 6 7 7 7 9 11 15 12 5 5 5 6 7 7 8 7 6 9 8 9 11 12 12 9 3 4 5 7 7 7 9 12 8 10 13 11 9 7 7 10 9 8 7 6 5 6 4 4 5 5 5 5 6 5 4 6 12 17 20 25 29 35 37 37 39 38 37 40 43 46
29 25 25 22 14 15 20 16 7 4 4 4 4 2 6 6 2 1 3 2 6 9 12 12 10 8 5 3 6 7 9 8 8 8 7 8 9 9 10 12 14 10 5 4 4 6 10 9 7 12 11 10 11 10 9 7 6 8 8 8 8 6 4 3 4 6 4 3 5 4 4 5 4 6 11 16 19 23 28 33 32 30 34 34 30 34 41 44
31 25 21 17 10 14 21 17 4 5 5 4 4 3 6 3 1 2 2 6 5 8 15 12 4 3 5 3 4 3 6 8 9 9 6 7 10 11 10 10 14 15 10 7 4 4 8 8 6 10 12 13 13 10 10 10 6 5 7 9 7 8 7 6 5 3 3 4 5 4 4 4 3 5 6 11 16 18 19 21 20 25 32 31 28 33 40 44
32 28 23 15 8 11 17 15 6 8 8 5 4 5 3 2 4 4 7 9 7 6 9 7 4 4 4 3 4 6 7 6 6 7 6 6 7 11 13 10 14 18 14 10 5 3 5 5 6 11 12 16 20 15 10 11 9 5 6 8 5 6 6 5 2 2 4 6 4 4 8 5 3 5 4 7 13 15 15 15 16 21 26 27 29 35 40 45
32 32 26 10 4 11 14 10 5 11 11 5 4 5 1 2 6 10 14 14 10 6 4 2 2 2 2 3 5 7 10 8 2 3 4 6 5 11 15 11 12 19 18 14 6 3 5 4 6 11 13 14 15 13 9 10 12 9 6 7 6 5 6 5 4 5 7 7 5 4 7 6 6 6 3 6 12 14 15 16 16 18 20 24 31 36 40 44
29 28 20 5 5 19 19 11 4 13 12 3 5 5 2 4 8 12 17 15 10 7 4 2 3 4 5 6 8 9 9 7 6 6 2 4 4 9 16 12 10 16 20 18 9 3 5 4 5 7 10 10 8 8 8 9 10 8 5 6 5 5 7 6 4 4 5 6 5 4 3 4 7 6 6 9 12 14 15 16 16 17 21 29 33 37 40 42
26 19 15 11 15 25 22 13 4 13 9 3 4 4 3 5 8 13 18 15 8 5 4 3 6 7 7 9 9 9 8 7 8 6 3 4 7 5 11 11 11 14 20 22 15 7 5 5 5 5 6 8 6 7 11 10 9 9 7 7 6 3 3 5 5 4 4 4 4 4 5 6 5 5 9 11 12 14 16 16 16 18 26 35 37 39 42 43
22 9 15 19 23 25 22 11 1 5 4 5 5 5 7 7 8 13 20 20 13 9 8 8 7 7 8 10 9 7 7 8 8 6 4 4 6 3 6 11 2 9 15 18 15 9 6 4 6 6 6 7 6 6 12 15 12 10 9 9 9 5 3 5 6 3 2 5 5 5 7 8 5 5 8 10 10 11 15 17 15 19 29 37 39 42 45 46
15 7 21 26 24 26 21 8 2 2 2 4 5 7 8 8 9 11 16 19 14 10 11 10 7 7 6 6 6 6 7 7 7 7 7 6 6 4 18 34 24 12 6 12 16 14 10 6 7 9 7 8 8 7 10 16 17 14 11 9 8 6 5 6 6 4 3 5 4 4 7 9 5 6 8 9 9 9 14 17 16 21 33 38 40 44 47 49
11 17 32 30 24 24 15 3 3 3 1 5 10 11 11 9 10 10 9 9 7 6 8 6 5 5 3 4 5 7 8 5 4 6 7 7 8 9 22 36 32 20 10 4 9 11 10 7 6 8 7 8 11 9 6 10 14 13 11 10 9 9 8 6 5 4 4 6 4 3 8 6 4 5 7 8 8 7 11 17 18 21 31 37 40 43 46 48
17 26 33 26 23 19 7 0 3 5 4 8 9 10 12 11 7 5 5 7 7 5 5 5 6 6 4 4 5 5 7 5 3 9 9 5 8 16 25 35 28 13 8 10 8 5 5 7 7 6 6 7 9 9 7 6 8 8 9 12 14 14 11 6 4 4 3 6 7 5 8 5 5 5 7 9 11 5 7 16 22 23 27 34 39 42 45 48
17 19 21 22 23 14 5 4 5 4 7 10 9 9 11 10 9 10 8 8 7 5 5 6 7 8 4 4 5 4 5 4 4 8 8 7 9 12 22 33 24 11 14 21 20 14 7 7 8 8 9 10 9 9 8 6 6 7 8 14 17 17 15 9 4 5 6 4 5 6 7 5 6 5 9 13 15 11 7 11 20 24 26 31 35 39 43 46
10 8 10 17 19 11 7 12 12 8 8 10 8 8 10 8 11 15 12 6 5 7 8 6 7 9 5 5 6 5 6 5 5 6 7 9 9 8 19 28 20 16 24 31 28 15 4 5 8 14 15 12 11 9 7 6 8 10 10 13 17 19 18 12 6 7 6 4 5 7 5 4 6 6 9 12 14 14 10 7 11 18 21 23 28 35 41 45
5 3 5 11 11 8 8 13 13 10 9 9 5 5 10 9 8 12 11 6 7 11 8 3 4 6 6 7 6 4 6 8 8 7 6 8 8 10 16 18 14 20 29 27 25 14 2 5 9 14 18 17 15 13 11 8 10 14 14 14 16 18 19 15 11 9 8 6 9 8 7 6 8 7 8 11 11 11 8 5 9 16 21 23 29 36 39 41
4 5 9 11 7 4 7 12 14 12 10 10 6 5 10 10 7 8 9 9 12 13 6 1 3 5 5 8 6 4 8 10 10 7 6 7 9 11 15 10 7 21 28 19 18 13 2 4 7 10 15 20 19 16 17 14 9 11 15 15 17 20 21 19 16 11 11 9 12 8 9 9 7 7 9 9 9 10 8 9 13 18 24 30 33 33 34 35
7 8 11 10 7 6 10 16 18 14 10 9 6 6 9 9 8 7 6 7 9 10 8 5 6 8 6 5 4 4 6 8 9 8 7 9 11 10 11 8 4 15 21 14 13 11 4 5 7 13 14 16 21 19 19 19 13 10 12 14 15 18 22 22 19 14 13 12 10 9 11 11 7 8 10 9 11 11 9 9 14 17 22 30 33 32 32 34
9 8 9 9 8 10 13 13 12 10 8 8 6 6 8 7 8 8 6 6 6 7 9 8 9 11 6 2 3 4 5 7 11 13 10 9 9 6 5 5 6 11 14 10 10 10 6 6 9 12 12 11 18 21 19 19 19 14 10 12 15 16 18 19 18 15 12 11 8 9 10 9 6 7 9 10 11 8 6 6 13 17 18 22 27 29 31 35
13 12 11 9 7 8 8 8 7 5 5 5 4 6 7 7 9 10 8 9 8 7 7 9 10 11 7 5 3 6 10 10 12 16 14 11 10 6 4 5 8 11 11 7 9 10 6 7 9 8 7 7 11 19 22 19 17 14 12 13 14 13 14 14 13 11 10 9 8 8 7 7 7 7 8 11 9 7 6 6 11 16 18 18 23 28 30 34
13 12 11 7 5 5 6 6 6 4 4 3 3 7 8 8 12 11 8 8 9 8 10 11 10 9 8 9 9 10 14 15 16 21 22 20 19 15 14 14 12 11 10 8 9 9 7 7 7 7 5 7 11 14 20 17 13 13 15 14 12 10 11 12 13 13 12 9 8 8 9 7 8 8 8 11 10 7 10 11 11 18 22 21 24 29 31 32
Wind_Direction
341 342 336 330 329 326 324 323 320 320 319 317 315 313 312 310 309 309 307 307 306 304 304 303 303 304 305 304 299 297 298 297 295 289 281 278 278 254 211 196 197 198 204 195 190 188 182 185 185 181 187 202 215 221 218 218 214 198 186 232 243 268 252 203 186 209 185 269 250 170 122 121 130 118 127 134 136 144 149 149 147 149 149 148 154 156 156 157
342 342 335 333 332 329 327 324 321 320 318 318 316 315 313 312 310 309 308 307 306 305 304 303 303 306 308 304 303 301 299 300 298 293 288 277 250 222 197 196 195 192 206 202 198 193 186 189 187 183 193 208 217 219 218 212 208 197 143 267 233 228 241 227 205 238 245 206 283 151 129 131 140 135 140 140 142 144 132 131 131 127 137 143 151 155 157 159
340 338 334 335 334 331 329 325 323 320 318 317 314 314 314 312 311 310 309 308 307 306 305 305 305 308 308 304 305 304 304 308 304 298 312 298 242 208 189 191 192 187 201 199 196 199 197 195 188 187 199 215 219 214 214 205 202 200 189 263 248 227 249 270 253 255 263 209 288 154 138 138 145 147 151 149 143 144 138 141 137 133 142 148 153 157 160 162
337 335 333 333 333 331 329 326 324 320 318 316 314 313 311 311 311 309 309 308 307 306 306 305 305 310 309 304 305 305 311 316 304 299 37 37 195 196 187 185 187 185 193 199 202 205 207 199 190 194 205 223 226 219 218 204 191 189 195 221 244 230 232 264 257 247 254 200 242 171 144 145 152 153 154 152 143 144 157 155 151 148 150 153 156 159 163 165
336 334 332 332 330 329 328 326 324 321 319 316 314 311 309 309 308 308 308 307 307 306 306 304 306 312 309 304 304 305 317 330 294 176 81 80 82 151 180 183 189 189 192 203 211 207 204 200 195 201 213 230 227 225 231 214 198 187 212 225 238 236 212 256 250 233 238 217 203 167 155 156 158 158 157 157 155 167 169 164 158 155 155 158 160 162 165 166
337 335 333 331 329 328 326 324 322 320 318 316 315 312 310 307 305 306 304 305 305 304 305 302 305 309 308 306 302 302 300 273 245 199 153 123 106 118 158 180 190 193 198 203 211 207 201 202 200 204 214 231 224 221 234 220 204 216 235 229 236 236 231 255 242 226 228 223 207 207 181 163 157 164 166 166 170 171 170 166 160 159 159 160 162 164 166 169
337 335 333 331 329 327 324 322 320 318 316 315 315 313 311 308 305 304 302 303 301 301 303 299 303 306 307 306 299 299 268 259 267 220 204 197 181 174 157 176 182 188 198 203 210 205 203 206 206 209 211 226 229 225 237 225 203 214 242 233 235 235 231 240 236 221 214 222 237 216 190 168 155 165 175 173 168 166 165 164 160 159 159 159 162 167 170 172
336 335 333 331 329 326 323 321 319 316 314 312 312 311 311 309 306 304 302 301 297 299 298 295 301 301 303 305 300 298 273 276 296 191 215 233 231 222 193 187 188 191 198 206 209 204 206 210 211 213 211 226 226 225 234 228 203 210 234 235 235 237 233 235 235 227 212 223 232 186 176 180 166 166 177 163 154 160 160 161 159 157 159 161 164 168 171 173
338 335 333 331 328 326 322 321 319 316 313 310 308 307 307 308 307 305 302 298 296 296 294 292 296 297 300 298 298 294 277 291 2 193 220 232 235 229 214 206 201 200 205 212 213 209 209 211 214 212 213 233 232 236 236 231 208 209 224 234 231 232 235 231 231 233 217 203 198 168 166 201 171 162 162 149 152 158 157 157 157 157 160 164 166 170 172 174
342 337 335 332 329 326 323 321 320 317 314 309 306 303 303 303 304 304 301 297 295 294 292 288 290 292 293 289 282 266 265 284 335 252 228 228 231 225 222 221 213 210 215 218 217 216 215 214 216 214 224 247 245 247 242 239 232 211 218 232 231 228 232 227 223 230 219 194 195 180 172 187 159 147 124 150 153 153 153 155 158 159 163 166 168 171 174 176
343 341 337 334 330 327 323 322 320 318 314 310 307 303 300 299 299 300 298 295 292 294 291 286 289 286 285 279 240 242 262 261 84 72 319 243 229 220 217 218 217 216 219 223 221 219 220 220 218 216 228 248 250 252 252 253 257 244 233 238 237 230 229 228 221 223 220 201 202 192 172 178 154 138 142 151 153 154 155 156 160 162 165 169 170 172 175 178
343 341 339 336 332 327 323 321 320 319 315 311 308 305 302 298 295 294 292 291 291 291 288 285 287 282 285 273 248 248 257 239 238 283 287 263 228 219 214 213 210 209 217 222 223 221 223 225 221 217 227 245 254 254 267 270 276 276 259 254 248 231 222 229 228 220 212 203 203 184 145 197 161 140 150 153 155 155 156 157 162 165 167 170 172 175 177 179
342 341 340 338 335 331 326 323 322 320 315 310 309 308 307 299 293 289 285 286 287 286 284 283 284 282 282 266 256 258 262 259 267 271 264 250 233 226 220 216 209 204 225 223 220 220 221 225 223 223 233 250 270 264 284 295 301 295 257 246 242 221 217 226 229 224 210 195 196 173 142 222 164 148 154 155 157 154 155 160 164 167 169 172 174 177 179 181
342 341 340 338 336 334 330 326 325 322 315 310 311 312 309 302 292 283 280 283 284 282 280 280 282 284 269 261 266 272 274 269 265 258 248 236 228 226 223 220 219 219 230 236 222 211 215 224 225 229 238 245 260 268 287 300 301 307 285 297 208 184 231 228 222 221 205 188 186 164 164 216 148 155 158 158 158 155 158 163 166 168 170 173 176 179 181 184
343 342 340 339 337 335 333 330 327 325 317 312 316 318 311 304 293 282 280 281 281 278 277 279 279 278 269 269 274 281 277 261 253 246 231 223 219 218 218 215 221 223 222 237 238 222 221 228 223 227 242 246 252 263 286 304 284 264 258 292 245 193 238 234 218 210 191 181 179 158 167 198 150 161 161 160 161 158 160 165 168 170 171 174 177 181 183 187
343 342 340 339 338 335 335 332 330 326 318 318 323 322 315 310 298 287 287 283 280 276 272 275 270 260 267 277 281 281 258 243 251 244 220 218 214 210 215 217 222 223 219 227 239 239 237 239 233 234 243 246 244 242 287 313 296 260 187 247 254 223 248 243 219 209 187 169 180 168 165 183 155 164 164 164 164 161 162 166 169 172 174 176 178 181 184 188
343 341 339 339 338 336 336 335 332 325 320 326 330 327 326 325 315 304 301 291 282 270 255 241 245 263 259 265 275 270 251 238 251 246 219 217 212 207 212 219 217 214 213 214 226 238 242 243 243 245 242 237 216 198 253 264 258 281 201 235 256 237 253 252 234 214 181 165 186 175 160 180 160 162 166 167 167 164 164 168 171 174 176 177 179 183 185 189
343 340 339 338 337 337 337 337 334 325 323 334 338 335 340 347 341 331 323 333 323 269 237 210 167 315 263 253 264 268 265 250 248 251 232 215 214 212 207 212 212 205 206 207 213 227 239 239 219 238 244 228 213 184 206 228 225 247 221 231 269 254 252 237 248 211 170 167 179 167 169 184 162 161 167 169 169 167 169 171 173 175 177 178 180 182 186 190
343 341 339 337 337 337 338 338 334 326 327 344 354 349 1 0 352 352 346 334 323 268 251 212 182 205 263 257 261 268 274 263 264 263 242 209 210 213 206 213 218 201 197 197 204 211 219 231 210 225 234 219 225 201 208 229 221 238 235 225 252 262 265 244 253 207 166 167 176 171 176 179 164 164 167 169 171 171 172 173 174 176 178 180 181 183 186 191
345 343 340 338 338 336 338 339 334 328 328 349 9 19 24 5 357 349 320 311 292 272 271 254 231 240 257 263 258 265 279 271 273 265 242 210 199 204 204 212 220 201 188 171 193 202 200 217 226 220 220 214 232 222 212 230 240 248 253 246 249 257 264 257 267 215 167 166 183 179 175 174 170 169 167 170 172 172 173 173 175 177 178 180 183 185 188 193
346 344 341 339 338 336 337 338 332 328 325 343 5 20 22 3 351 321 318 306 288 273 266 261 250 248 255 259 256 264 286 285 268 250 240 217 198 194 202 207 211 202 191 177 183 196 196 218 233 215 211 211 226 232 216 224 242 251 249 254 260 252 258 270 290 259 181 170 189 180 171 177 176 173 168 168 171 174 175 176 177 179 180 182 185 187 190 195
346 345 343 339 339 337 336 337 331 325 319 330 359 19 18 1 353 333 323 303 289 279 263 262 256 251 256 257 255 259 271 279 263 242 222 206 198 189 194 198 196 198 193 182 181 195 205 223 228 213 213 219 227 235 223 223 234 248 247 251 261 252 266 284 283 266 212 187 189 180 175 183 181 177 172 168 174 180 179 179 178 180 182 184 186 189 191 193
343 344 343 341 339 336 336 337 329 319 319 328 347 9 5 352 349 340 330 300 292 283 261 256 248 245 250 251 250 246 238 245 252 237 211 193 192 186 181 187 195 192 184 190 188 191 216 221 213 205 208 221 234 235 228 226 228 239 243 240 250 247 247 264 270 259 217 202 183 179 176 186 184 178 178 176 177 180 182 182 181 182 184 186 189 191 191 191
340 340 341 340 338 335 336 335 327 321 328 329 340 348 342 335 343 348 337 296 285 280 265 260 245 239 243 244 239 222 216 225 233 225 209 193 187 183 183 185 186 193 191 195 195 202 221 196 193 203 206 211 226 233 228 224 226 235 238 237 245 244 226 227 261 283 235 220 157 153 138 217 200 185 191 186 178 179 183 184 184 185 187 189 191 192 192 192
337 336 338 338 337 334 335 335 329 327 328 326 332 324 319 321 338 353 343 300 275 277 276 267 238 237 240 233 221 208 209 222 227 218 207 201 191 177 183 190 184 202 202 193 196 213 226 197 191 203 208 209 217 227 225 216 220 238 236 236 243 247 239 236 263 323 230 246 171 148 149 264 236 203 196 192 184 182 181 183 187 189 190 190 190 192 194 195
334 333 334 336 336 334 332 334 331 329 329 324 314 306 304 312 329 348 348 323 288 266 252 223 211 228 224 205 197 188 190 229 229 220 210 209 201 183 177 186 184 201 195 190 205 218 217 202 200 207 206 209 213 221 225 213 211 236 229 231 243 249 251 248 261 273 161 250 220 176 182 210 235 224 207 189 186 188 182 184 189 189 190 192 191 193 194 195
331 330 331 332 335 336 331 328 326 330 334 318 309 306 305 312 323 338 358 352 298 219 163 182 198 199 192 184 173 160 141 227 220 220 213 208 204 193 187 180 179 191 177 177 217 204 185 195 209 215 208 211 213 215 220 210 212 230 206 210 234 245 251 252 256 249 210 258 261 208 192 165 189 215 214 195 186 188 186 189 191 189 192 193 193 194 195 196
328 327 328 327 330 333 325 318 319 328 331 316 314 312 313 327 326 339 70 333 304 166 158 190 197 208 184 169 167 169 178 150 167 216 210 204 202 193 191 197 184 177 176 180 212 192 166 191 206 212 215 217 215 216 215 210 221 232 199 202 223 233 244 248 253 254 218 217 263 246 204 196 225 212 207 200 189 190 194 195 194 192 194 194 194 194 196 197
325 324 326 322 322 325 315 308 311 322 322 316 318 318 329 347 344 21 108 256 296 317 238 181 185 171 153 157 176 194 209 158 168 207 198 201 208 201 202 204 184 167 193 200 220 205 174 198 200 203 219 221 211 219 217 213 225 226 206 216 230 231 240 243 244 250 226 196 232 233 197 210 270 230 197 203 199 199 201 200 197 193 194 196 196 196 197 198
325 324 325 319 317 319 310 304 311 319 319 319 319 324 343 355 47 80 196 239 281 279 212 164 172 151 146 149 194 217 230 243 297 168 181 196 205 207 214 203 193 177 202 212 227 225 218 218 207 200 217 215 202 212 216 216 220 217 202 214 242 248 245 252 244 232 235 230 228 219 196 196 245 244 193 196 199 199 202 204 201 195 194 197 197 197 198 198
326 325 323 316 314 314 306 306 322 320 315 318 314 315 333 349 98 146 212 259 294 251 221 67 120 137 156 167 191 212 230 263 290 138 170 191 196 201 194 193 202 198 211 227 231 231 231 231 227 212 213 208 200 208 213 214 216 218 201 191 226 253 259 273 259 200 221 239 230 213 200 197 220 241 204 205 205 199 198 200 201 199 197 197 198 199 198 198
328 327 323 312 308 303 298 302 314 309 305 307 302 306 349 133 222 206 233 328 319 214 70 9 9 65 200 216 193 197 203 227 225 161 170 183 191 199 189 186 189 186 216 222 214 226 229 231 238 235 223 209 199 206 214 214 212 213 202 179 198 219 233 240 235 220 223 240 233 202 199 204 217 219 200 206 211 207 203 201 201 202 199 197 197 199 199 198
327 329 324 313 307 305 305 308 304 296 298 291 274 321 70 202 226 199 222 284 286 24 37 2 338 343 283 263 263 207 195 213 217 184 180 187 191 205 209 205 186 185 206 201 198 213 235 245 233 234 236 214 203 199 206 209 205 209 199 178 189 196 208 223 231 251 243 253 248 193 192 212 228 223 201 200 207 208 205 205 206 204 201 199 198 197 198 198
328 331 323 315 319 331 340 336 308 284 275 231 195 84 138 223 232 177 198 240 285 333 19 359 328 322 294 242 242 205 197 230 220 184 174 185 193 208 213 209 199 196 158 149 193 202 216 242 220 215 219 205 208 206 197 183 185 207 200 182 196 192 201 218 212 221 231 258 266 204 194 198 196 216 202 196 205 205 205 208 209 206 203 202 199 195 196 198
328 329 318 316 338 4 4 358 328 256 215 161 111 123 200 214 263 205 203 267 311 333 350 346 325 310 306 261 241 210 194 218 219 202 190 183 195 203 205 207 200 192 166 176 203 193 213 238 225 219 216 201 210 205 184 168 179 208 193 186 207 187 182 237 212 201 197 237 255 218 211 211 206 225 200 193 202 202 205 209 206 204 204 201 195 193 196 199
329 330 319 317 347 8 2 358 337 208 192 139 118 214 222 223 279 247 337 7 0 341 339 341 358 332 319 309 296 265 214 219 206 206 214 197 201 200 200 207 198 195 191 191 209 177 203 236 227 219 228 220 217 204 183 181 183 203 194 197 198 167 179 226 243 233 178 218 238 207 241 280 284 262 219 197 203 202 205 208 202 201 201 196 192 193 196 198
334 332 320 318 343 352 351 353 329 224 201 153 167 228 232 278 312 313 327 332 326 333 342 344 2 346 317 303 325 348 334 287 205 196 214 203 203 199 201 208 197 199 197 190 218 189 178 248 231 204 226 231 220 216 213 197 175 165 198 201 175 155 181 192 210 251 213 229 255 217 235 256 235 252 250 195 201 205 203 202 201 203 199 195 195 196 196 197
337 331 322 321 359 327 322 335 310 222 201 167 217 248 262 286 314 321 312 314 318 324 329 287 257 275 289 303 316 335 340 332 310 283 241 217 211 190 194 206 199 201 198 189 215 223 183 259 262 210 216 227 218 215 229 221 198 185 188 187 171 178 196 180 186 212 211 227 261 249 238 230 213 232 232 195 201 202 199 198 201 202 198 199 201 200 198 196
340 334 320 291 324 323 320 324 273 203 195 183 218 232 260 260 277 289 293 305 313 307 306 267 265 302 315 323 323 322 327 319 310 322 277 236 255 193 186 192 195 200 198 192 201 223 193 223 265 235 217 213 210 201 212 228 216 199 184 186 184 183 194 200 200 189 193 216 236 249 246 236 229 210 192 208 208 199 197 196 199 199 199 202 203 203 202 198
345 336 302 296 330 329 322 319 240 186 195 231 212 222 264 266 275 280 286 299 304 294 304 303 307 311 306 307 305 303 308 296 291 300 256 281 308 228 192 193 190 190 195 199 204 205 192 202 237 271 248 214 208 199 201 206 207 204 198 200 208 195 184 209 212 174 156 179 198 222 238 249 246 193 187 209 208 201 200 195 197 199 199 203 204 204 205 203
348 329 284 311 342 342 333 327 218 176 220 237 218 236 247 254 274 276 277 280 276 271 273 276 286 282 281 292 291 289 294 283 281 278 255 293 298 270 7 8 311 202 196 199 203 201 194 204 221 242 252 227 218 208 199 196 197 202 204 204 203 190 150 191 222 214 158 180 175 196 242 255 242 186 191 212 209 203 200 194 199 202 200 204 206 205 205 205
344 290 290 316 347 354 350 345 301 319 255 244 265 271 258 257 264 263 269 272 269 272 274 272 279 279 280 300 315 332 322 292 280 271 256 279 271 273 14 11 357 326 267 208 203 199 193 199 217 224 239 239 232 226 208 202 198 197 206 206 191 180 159 174 216 240 244 224 166 169 240 258 249 190 185 214 218 207 204 197 196 202 202 204 206 206 206 206
324 294 303 322 351 354 350 348 302 321 256 280 297 293 282 273 263 264 282 296 297 295 291 296 326 339 5 9 348 350 341 314 312 322 298 295 319 353 13 8 357 347 341 263 212 200 196 201 211 221 244 256 250 255 252 218 203 199 206 198 187 197 187 174 191 179 206 226 173 188 239 256 281 217 193 228 232 201 206 207 202 204 204 204 205 206 205 205
313 302 304 325 354 350 335 193 311 309 307 310 312 307 298 292 292 305 333 341 338 319 310 334 352 348 8 15 356 358 357 340 345 355 343 308 336 358 5 1 355 351 356 346 330 302 249 212 190 197 224 237 247 253 252 231 212 210 207 197 199 200 185 180 189 161 220 227 178 198 238 249 290 241 199 239 256 230 204 210 209 207 204 204 204 203 203 204
320 308 300 319 342 340 314 346 345 330 336 336 337 335 321 315 331 347 345 322 310 309 317 324 328 324 334 23 10 355 359 350 318 334 337 321 327 346 357 354 346 337 348 348 342 329 289 224 193 191 206 211 218 228 224 202 203 220 210 199 201 195 185 182 180 188 229 231 172 203 237 252 279 247 203 228 250 255 241 218 215 212 208 208 203 198 201 204
320 310 298 320 335 336 333 354 5 6 350 345 342 334 334 332 329 334 337 322 308 328 327 318 325 322 322 15 11 336 326 325 313 313 317 327 330 330 345 344 331 334 353 352 345 336 287 251 231 210 209 210 207 216 211 169 185 211 210 200 199 198 193 183 179 202 197 173 203 213 196 211 241 229 211 223 238 244 241 230 220 211 206 207 201 197 200 204
306 293 304 324 333 335 338 351 3 357 331 328 322 305 324 333 326 328 332 328 333 336 325 309 343 334 335 358 360 328 323 320 314 312 310 324 319 307 330 335 326 348 1 355 344 340 288 303 287 237 224 213 199 206 207 182 186 203 204 200 197 199 197 192 203 201 149 159 231 219 173 206 239 234 224 225 237 249 242 222 217 203 190 188 196 202 206 208
269 277 300 311 315 325 336 334 334 330 320 321 319 306 319 324 321 326 327 328 336 335 319 300 349 339 352 5 354 322 331 326 314 314 323 333 329 326 335 334 338 2 3 348 337 343 278 267 312 294 258 225 204 203 209 206 196 194 201 201 195 197 200 202 210 188 149 189 230 206 184 208 230 241 241 230 232 251 250 221 216 209 193 186 192 202 209 213
268 279 295 306 306 304 308 308 310 314 318 326 323 307 309 313 320 329 335 341 340 329 319 320 330 335 350 19 7 330 331 323 305 309 325 327 328 334 335 325 351 9 359 337 328 339 305 262 320 334 306 246 214 204 208 214 211 199 204 203 196 197 199 205 212 193 177 207 211 174 193 216 217 224 235 235 232 250 264 224 201 206 203 194 193 194 199 208
272 276 295 309 302 293 293 297 307 315 316 321 313 293 296 307 322 335 341 334 319 313 323 328 333 338 344 14 358 298 289 292 287 296 311 317 324 336 328 318 332 343 344 334 323 327 325 306 316 330 324 270 225 207 204 214 215 207 206 205 203 204 200 204 213 201 194 218 207 175 200 228 240 232 236 243 236 240 262 204 184 198 205 196 193 195 198 201
278 279 290 299 293 293 295 296 308 305 294 306 299 295 310 317 315 320 318 302 282 281 319 332 332 331 318 300 294 269 276 279 272 284 294 292 293 294 283 303 318 321 327 328 312 313 314 303 311 327 329 298 245 215 205 210 216 212 211 207 201 204 205 205 207 197 192 201 196 194 212 234 245 237 242 251 237 212 222 204 179 193 201 195 191 193 198 200
285 285 289 293 288 301 302 296 298 288 279 295 294 300 312 307 303 310 312 291 276 288 320 327 323 323 308 288 274 269 282 283 277 284 287 279 277 274 269 275 281 285 298 306 298 295 295 293 312 330 312 300 292 247 212 204 215 221 219 207 188 194 213 214 212 206 193 174 171 199 216 220 218 203 209 237 238 214 224 228 203 193 197 199 194 189 192 198